カタログに戻る

STARLINK-31289

運用中通信VLEO
NORAD 59173·PAYLOAD·🇺🇸 United States

打ち上げ Mar 4, 2024 から Cape Canaveral Space Force Station

Loading…

次のパス (今後24時間)

TLE

最新Source: CelesTrak SupGP

元期: Sep 15, 2026, 02:04 UTC

1 59173C 24044X   26258.08659722  .00050991  00000+0  18472-2 0  2586
2 59173  42.9994 117.4452 0001427 277.4047 346.3335 15.27547739    11

AllMySatでSTARLINK-31289をリアルタイム追跡

Download on the App Store